Location: Madden
(51.3728°N, 114.3297°W)
Time: 05:14:50
(UTC+00:00)

PCSat - Pass Details

Date: 07 December 2023
Orbit: 784 x 791 km, 67.0° (Epoch: 02 March)

Event Time Altitude Azimuth Distance (km) Brightness Sun altitude
Exits shadow 11:27:41 28° 55° (NE) 1,439 11.3 -36.2°
Drops below altitude 10° 11:30:18 10° 43° (NE) 2,360 12.5 -35.8°
Sets 11:32:46 0° 40° (NE) 3,294 13.4 -35.4°
